When you browse on this site, cookies collect data to enhance your experience and personalize the content and advertising you see.
Visit our Privacy Policy to learn more. By continuing to use the site, you agree to this use of cookies and data.
  • In Italy
  • List of Countries
  • For 7 days
  • Water Temperature
  • Satellite Maps
  • Weather Map
  • Weather Widgets
  • user-avatar
    Login

    Hourly Weather Burgas

    Today, 13 December, Thursday

    Time Temperature Precipitation Wind Pressure Humidity
    00:00 +1°C° 0 mm 3 mps 764 mmHg 79%
    01:00 +1°C° 0 mm 3 mps 764 mmHg 78%
    02:00 +1°C° 0 mm 3 mps 764 mmHg 78%
    03:00 0°C° 0 mm 3 mps 764 mmHg 77%
    04:00 0°C° 0 mm 3 mps 764 mmHg 77%
    05:00 0°C° 0 mm 3 mps 764 mmHg 76%
    06:00 0°C° 0 mm 3 mps 764 mmHg 76%
    07:00 0°C° 0 mm 3 mps 764 mmHg 76%
    08:00 0°C° 0 mm 3 mps 764 mmHg 76%
    09:00 +2°C° 0 mm 3 mps 764 mmHg 69%
    10:00 +3°C° 0 mm 4 mps 764 mmHg 63%
    11:00 +5°C° 0 mm 4 mps 764 mmHg 56%
    12:00 +5°C° 0 mm 3 mps 764 mmHg 54%
    13:00 +7°C° 0 mm 3 mps 763 mmHg 53%
    14:00 +7°C° 0 mm 3 mps 763 mmHg 52%
    15:00 +5°C° 0 mm 3 mps 763 mmHg 58%
    16:00 +5°C° 0 mm 2 mps 763 mmHg 64%
    17:00 +4°C° 0 mm 2 mps 763 mmHg 70%
    18:00 +4°C° 0 mm 1 mps 763 mmHg 71%
    19:00 +4°C° 0 mm 1 mps 763 mmHg 72%
    20:00 +4°C° 0 mm 1 mps 763 mmHg 73%
    21:00 +4°C° 0 mm 1 mps 763 mmHg 73%
    22:00 +4°C° 0 mm 1 mps 763 mmHg 73%
    23:00 +4°C° 0 mm 1 mps 763 mmHg 73%

    Tomorrow, 14 December, Friday

    Time Temperature Precipitation Wind Pressure Humidity
    00:00 +4°C° 0 mm 1 mps 763 mmHg 74%
    01:00 +4°C° 0 mm 1 mps 763 mmHg 74%
    02:00 +4°C° 0 mm 1 mps 763 mmHg 74%
    03:00 +4°C° 0 mm 1 mps 763 mmHg 75%
    04:00 +4°C° 0 mm 1 mps 763 mmHg 75%
    05:00 +4°C° 0 mm 1 mps 763 mmHg 76%
    06:00 +4°C° 0 mm 1 mps 763 mmHg 78%
    07:00 +4°C° 0 mm 1 mps 763 mmHg 79%
    08:00 +4°C° 0 mm 1 mps 764 mmHg 80%
    09:00 +4°C° 0 mm 2 mps 764 mmHg 77%
    10:00 +5°C° 0 mm 2 mps 764 mmHg 73%
    11:00 +7°C° 0 mm 2 mps 764 mmHg 69%
    12:00 +7°C° 0 mm 2 mps 764 mmHg 71%
    13:00 +7°C° 0 mm 2 mps 764 mmHg 72%
    14:00 +7°C° 0 mm 2 mps 764 mmHg 74%
    15:00 +7°C° 0.1 mm 2 mps 764 mmHg 78%
    16:00 +6°C° 0.1 mm 2 mps 764 mmHg 81%
    17:00 +6°C° 0.1 mm 2 mps 764 mmHg 85%
    18:00 +6°C° 0.1 mm 2 mps 764 mmHg 86%
    19:00 +6°C° 0.1 mm 2 mps 764 mmHg 87%
    20:00 +6°C° 0.1 mm 2 mps 764 mmHg 88%
    21:00 +6°C° 0.3 mm 2 mps 764 mmHg 89%
    22:00 +6°C° 0.3 mm 2 mps 764 mmHg 90%
    23:00 +6°C° 0.3 mm 2 mps 764 mmHg 91%

    Day after tomorrow, 15 December, Saturday

    Time Temperature Precipitation Wind Pressure Humidity
    00:00 +6°C° 0.3 mm 2 mps 764 mmHg 92%
    01:00 +6°C° 0.3 mm 2 mps 764 mmHg 94%
    02:00 +6°C° 0.3 mm 2 mps 764 mmHg 95%
    03:00 +6°C° 0.5 mm 2 mps 763 mmHg 95%
    04:00 +6°C° 0.5 mm 2 mps 763 mmHg 96%
    05:00 +6°C° 0.5 mm 2 mps 763 mmHg 96%
    06:00 +7°C° 0.6 mm 2 mps 763 mmHg 96%
    07:00 +7°C° 0.6 mm 2 mps 763 mmHg 96%
    08:00 +7°C° 0.6 mm 2 mps 763 mmHg 96%
    09:00 +7°C° 0.3 mm 2 mps 763 mmHg 96%
    10:00 +8°C° 0.3 mm 2 mps 763 mmHg 96%
    11:00 +8°C° 0.3 mm 2 mps 763 mmHg 95%
    12:00 +9°C° 0.2 mm 2 mps 763 mmHg 95%
    13:00 +9°C° 0.2 mm 2 mps 762 mmHg 95%
    14:00 +9°C° 0.2 mm 2 mps 762 mmHg 95%
    15:00 +9°C° 0.6 mm 2 mps 762 mmHg 96%
    16:00 +9°C° 0.6 mm 2 mps 762 mmHg 96%
    17:00 +9°C° 0.6 mm 2 mps 762 mmHg 97%
    18:00 +9°C° 0.3 mm 2 mps 762 mmHg 97%
    19:00 +9°C° 0.3 mm 2 mps 761 mmHg 97%
    20:00 +9°C° 0.3 mm 2 mps 761 mmHg 97%
    21:00 +9°C° 0.3 mm 2 mps 761 mmHg 96%
    22:00 +9°C° 0.3 mm 2 mps 761 mmHg 96%
    23:00 +9°C° 0.3 mm 2 mps 761 mmHg 96%

    16 December, Sunday

    Time Temperature Precipitation Wind Pressure Humidity
    00:00 +9°C° 0 mm 2 mps 760 mmHg 95%
    01:00 +9°C° 0 mm 2 mps 760 mmHg 95%
    02:00 +9°C° 0 mm 2 mps 760 mmHg 95%
    03:00 +9°C° 0 mm 2 mps 760 mmHg 94%
    04:00 +8°C° 0 mm 2 mps 759 mmHg 94%
    05:00 +8°C° 0 mm 2 mps 759 mmHg 93%
    06:00 +9°C° 0 mm 1 mps 759 mmHg 93%
    07:00 +9°C° 0 mm 1 mps 759 mmHg 93%
    08:00 +9°C° 0 mm 1 mps 759 mmHg 93%
    09:00 +10°C° 0 mm 1 mps 759 mmHg 89%
    10:00 +12°C° 0 mm 1 mps 759 mmHg 86%
    11:00 +13°C° 0 mm 1 mps 759 mmHg 83%
    12:00 +13°C° 0 mm 1 mps 759 mmHg 81%
    13:00 +14°C° 0 mm 1 mps 758 mmHg 78%
    14:00 +14°C° 0 mm 1 mps 758 mmHg 76%
    15:00 +13°C° 0 mm 1 mps 758 mmHg 80%
    16:00 +12°C° 0 mm 1 mps 758 mmHg 85%
    17:00 +10°C° 0 mm 2 mps 758 mmHg 89%
    18:00 +9°C° 0.1 mm 2 mps 759 mmHg 88%
    19:00 +8°C° 0.1 mm 3 mps 759 mmHg 87%
    20:00 +7°C° 0.1 mm 4 mps 759 mmHg 87%
    21:00 +6°C° 0.1 mm 4 mps 759 mmHg 86%
    22:00 +6°C° 0.1 mm 5 mps 759 mmHg 86%
    23:00 +5°C° 0.1 mm 5 mps 760 mmHg 86%

    17 December, Monday

    Time Temperature Precipitation Wind Pressure Humidity
    00:00 +5°C° 0.4 mm 5 mps 760 mmHg 86%
    01:00 +3°C° 0.4 mm 5 mps 760 mmHg 86%
    02:00 +3°C° 0.4 mm 5 mps 760 mmHg 86%
    03:00 +4°C° 0.3 mm 4 mps 760 mmHg 85%
    04:00 +4°C° 0.3 mm 4 mps 760 mmHg 84%
    05:00 +3°C° 0.3 mm 4 mps 760 mmHg 82%
    06:00 +3°C° 0.1 mm 4 mps 760 mmHg 82%
    07:00 +3°C° 0.1 mm 3 mps 760 mmHg 82%
    08:00 +2°C° 0.1 mm 3 mps 761 mmHg 81%
    09:00 +3°C° 0 mm 3 mps 761 mmHg 76%
    10:00 +4°C° 0 mm 3 mps 761 mmHg 71%
    11:00 +5°C° 0 mm 3 mps 761 mmHg 65%
    12:00 +5°C° 0 mm 3 mps 761 mmHg 63%
    13:00 +7°C° 0 mm 3 mps 761 mmHg 60%
    14:00 +8°C° 0 mm 3 mps 761 mmHg 57%
    15:00 +7°C° 0 mm 2 mps 761 mmHg 61%
    16:00 +6°C° 0 mm 2 mps 761 mmHg 64%
    17:00 +6°C° 0 mm 2 mps 761 mmHg 68%
    18:00 +5°C° 0 mm 2 mps 761 mmHg 69%
    19:00 +5°C° 0 mm 2 mps 762 mmHg 70%
    20:00 +4°C° 0 mm 2 mps 762 mmHg 71%
    21:00 +4°C° 0 mm 2 mps 762 mmHg 70%
    22:00 +3°C° 0 mm 2 mps 762 mmHg 70%
    23:00 +3°C° 0 mm 2 mps 763 mmHg 70%

    18 December, Tuesday

    Time Temperature Precipitation Wind Pressure Humidity
    00:00 +3°C° 0 mm 2 mps 763 mmHg 70%
    01:00 +3°C° 0 mm 2 mps 763 mmHg 70%
    02:00 +2°C° 0 mm 2 mps 763 mmHg 70%
    03:00 +2°C° 0 mm 2 mps 763 mmHg 70%
    04:00 +2°C° 0 mm 2 mps 763 mmHg 71%
    05:00 +2°C° 0 mm 2 mps 763 mmHg 71%
    06:00 +2°C° 0 mm 2 mps 763 mmHg 71%
    07:00 +2°C° 0 mm 2 mps 763 mmHg 72%
    08:00 +2°C° 0 mm 2 mps 763 mmHg 72%
    09:00 +3°C° 0 mm 2 mps 764 mmHg 67%
    10:00 +3°C° 0 mm 3 mps 764 mmHg 63%
    11:00 +4°C° 0 mm 3 mps 764 mmHg 58%
    12:00 +4°C° 0 mm 3 mps 764 mmHg 59%
    13:00 +5°C° 0 mm 3 mps 763 mmHg 59%
    14:00 +5°C° 0 mm 4 mps 763 mmHg 60%
    15:00 +4°C° 0 mm 4 mps 763 mmHg 66%
    16:00 +3°C° 0 mm 4 mps 763 mmHg 71%
    17:00 +1°C° 0 mm 5 mps 764 mmHg 77%
    18:00 +1°C° 0 mm 5 mps 764 mmHg 79%
    19:00 0°C° 0 mm 5 mps 764 mmHg 80%
    20:00 0°C° 0 mm 5 mps 764 mmHg 82%
    21:00 -1°C° 0 mm 6 mps 764 mmHg 82%
    22:00 -1°C° 0 mm 6 mps 765 mmHg 81%
    23:00 -2°C° 0 mm 7 mps 765 mmHg 81%
    Show more